FW4300 Naguabo PR US current weather conditions

sailwx.info

Wind from 323 at 1 knots gusting 4

Air temperature 25.0° C
Dewpoint 21.7° C

Last reported at 2019-Dec-07 13:10 UTC.
Time now 2019-Dec-07 13:36 UTC

Location: N 18°13' W 065°49'.
View on Google Maps.

See reports from other nearby stations

  
Tides and Currents Weather Stations Pressure Air Temp Water Temp Dewpoint Dewpoint Depression Visibility Wind Speed Wind Dir Waves Ship Positions
date/time (UTC)wind fromknots sea level pressurealtimeterstation pressurevisibilityair tempwater tempwave heightnotes
2019-Dec-07 13:10 323 1 gusting 4 25.0
2019-Dec-07 13:05 319 2 gusting 4 24.4
2019-Dec-07 13:00 316 2 gusting 5 24.4
2019-Dec-07 12:55 331 1 gusting 4 24.4
2019-Dec-07 12:46 335 2 gusting 5 23.9
2019-Dec-07 12:41 020 2 gusting 4 23.3
2019-Dec-07 12:35 335 2 gusting 4 23.3
2019-Dec-07 12:31 333 2 gusting 5 22.8
2019-Dec-07 12:25 319 2 gusting 5 22.8
2019-Dec-07 12:20 333 2 gusting 5 22.8
2019-Dec-07 12:16 342 3 gusting 5 22.8
2019-Dec-07 12:10 030 2 gusting 4 22.2
2019-Dec-07 12:05 360 1 gusting 5 22.2
2019-Dec-07 12:02 347 2 gusting 5 22.2
2019-Dec-07 11:55 002 2 gusting 4 22.2
2019-Dec-07 11:50 335 1 gusting 4 21.7
2019-Dec-07 11:46 339 2 gusting 4 21.7
2019-Dec-07 11:40 339 2 gusting 4 21.7
2019-Dec-07 11:35 345 1 gusting 4 21.7
2019-Dec-07 11:31 358 1 gusting 4 21.1
2019-Dec-07 11:25 011 1 gusting 4 21.1
2019-Dec-07 11:20 332 1 gusting 4 21.1
2019-Dec-07 11:16 353 2 gusting 4 21.1
2019-Dec-07 11:10 327 1 gusting 4 21.1
2019-Dec-07 11:05 335 2 gusting 4 21.1
2019-Dec-07 11:01 335 2 gusting 4 21.1
2019-Dec-07 10:55 331 2 gusting 4 21.1
2019-Dec-07 10:50 347 1 gusting 4 20.6
2019-Dec-07 10:46 356 2 gusting 4 20.6
2019-Dec-07 10:40 327 1 gusting 3 20.6
2019-Dec-07 10:35 348 1 gusting 3 20.6
2019-Dec-07 10:31 023 1 gusting 3 20.6
2019-Dec-07 10:25 320 1 gusting 3 20.6
2019-Dec-07 10:20 336 0 gusting 2 20.6
2019-Dec-07 10:15 314 0 gusting 4 20.6
2019-Dec-07 10:10 001 1 gusting 4 20.6
2019-Dec-07 10:05 340 0 gusting 4 20.6
2019-Dec-07 10:00 335 1 gusting 3 20.6
2019-Dec-07 09:55 023 0 gusting 3 20.6
2019-Dec-07 09:50 338 1 gusting 3 20.6
2019-Dec-07 09:45 322 1 gusting 3 20.6
2019-Dec-07 09:40 348 0 gusting 3 20.6
2019-Dec-07 09:35 319 0 gusting 2 21.1
2019-Dec-07 09:30 321 1 gusting 3 21.1
2019-Dec-07 09:25 332 0 gusting 3 21.1
2019-Dec-07 09:20 326 1 gusting 3 21.1
2019-Dec-07 09:10 307 0 gusting 2 21.1
2019-Dec-07 09:05 341 1 gusting 3 21.1
2019-Dec-07 09:00 349 1 gusting 4 21.1
2019-Dec-07 08:55 333 1 gusting 4 21.1
2019-Dec-07 08:50 337 1 gusting 5 21.1
2019-Dec-07 08:45 335 2 gusting 5 21.1
2019-Dec-07 08:40 025 2 gusting 4 21.1
2019-Dec-07 08:35 357 1 gusting 4 20.6
2019-Dec-07 08:30 325 2 gusting 3 20.6
2019-Dec-07 08:25 311 1 gusting 3 20.6
2019-Dec-07 08:20 318 1 gusting 5 21.1
2019-Dec-07 08:15 344 3 gusting 5 21.1
2019-Dec-07 08:10 329 1 gusting 3 20.6
2019-Dec-07 08:05 333 1 gusting 3 20.6
2019-Dec-07 07:55 013 0 gusting 3 20.6
2019-Dec-07 07:46 342 1 gusting 4 20.6
2019-Dec-07 07:40 334 1 gusting 4 21.1
2019-Dec-07 07:35 336 2 gusting 4 21.1
2019-Dec-07 07:32 320 0 gusting 3 21.1
2019-Dec-07 07:25 326 1 gusting 2 21.7
2019-Dec-07 07:20 343 1 gusting 2 21.7
2019-Dec-07 07:17 001 1 gusting 3 21.7
2019-Dec-07 07:10 015 0 gusting 4 21.7
2019-Dec-07 07:06 011 1 gusting 4 21.1
2019-Dec-07 07:01 017 1 gusting 2 21.1
2019-Dec-07 06:55 015 1 gusting 2 21.1
2019-Dec-07 06:50 336 0 gusting 2 21.1
2019-Dec-07 06:46 337 1 gusting 2 21.7
2019-Dec-07 06:40 347 0 gusting 2 21.1
2019-Dec-07 06:35 004 0 gusting 3 21.1
2019-Dec-07 06:30 347 1 gusting 3 21.1
2019-Dec-07 06:25 021 1 gusting 3 21.1
2019-Dec-07 06:16 012 1 gusting 2 21.1
2019-Dec-07 06:10 331 0 gusting 1 21.7
2019-Dec-07 06:05 302 21.7
2019-Dec-07 06:00 340 0 gusting 2 21.7
2019-Dec-07 05:55 029 21.7
2019-Dec-07 05:50 325 0 gusting 2 21.7
2019-Dec-07 05:46 345 0 gusting 2 21.7
2019-Dec-07 05:40 340 0 gusting 2 21.7
2019-Dec-07 05:35 338 0 gusting 2 21.7
2019-Dec-07 05:30 328 0 gusting 1 21.7
2019-Dec-07 05:25 321 21.7
2019-Dec-07 05:20 316 21.7
2019-Dec-07 05:15 330 0 gusting 3 21.7
2019-Dec-07 05:10 335 0 gusting 3 21.7
2019-Dec-07 05:05 309 21.7
2019-Dec-07 05:00 339 21.7
2019-Dec-07 04:55 335 1 gusting 2 21.7
2019-Dec-07 04:50 333 1 gusting 2 22.2
2019-Dec-07 04:45 345 0 gusting 1 22.2
2019-Dec-07 04:40 326 0 gusting 1 22.2
2019-Dec-07 04:35 030 22.2
2019-Dec-07 04:25 023 22.2
2019-Dec-07 04:20 328 0 gusting 2 22.2
2019-Dec-07 04:15 321 0 gusting 2 22.2
2019-Dec-07 04:10 336 0 gusting 2 22.2
2019-Dec-07 04:05 328 0 gusting 2 22.2
2019-Dec-07 04:00 332 0 gusting 2 22.2
2019-Dec-07 03:55 331 0 gusting 2 22.2
2019-Dec-07 03:50 326 0 gusting 2 22.2
2019-Dec-07 03:45 328 0 gusting 1 22.2
2019-Dec-07 03:40 311 22.2
2019-Dec-07 03:35 328 0 gusting 2 22.2
2019-Dec-07 03:26 326 0 gusting 1 22.2
2019-Dec-07 03:21 320 0 gusting 2 22.2
2019-Dec-07 03:16 335 0 gusting 2 22.2
2019-Dec-07 03:10 329 0 gusting 1 22.2
2019-Dec-07 03:05 336 0 gusting 1 22.2
2019-Dec-07 03:01 308 0 gusting 1 22.2
2019-Dec-07 02:56 304 0 gusting 1 22.2
2019-Dec-07 02:50 318 1 gusting 1 22.8
2019-Dec-07 02:46 326 0 gusting 1 22.8
2019-Dec-07 02:41 325 0 gusting 1 22.8
2019-Dec-07 02:35 309 22.8
2019-Dec-07 02:31 307 0 gusting 1 23.3
2019-Dec-07 02:25 302 23.3
2019-Dec-07 02:20 350 22.8
2019-Dec-07 02:19 006 22.8
2019-Dec-07 02:10 021 22.8
2019-Dec-07 02:06 339 0 gusting 1 22.8
2019-Dec-07 02:01 323 22.8
2019-Dec-07 01:55 319 23.3
2019-Dec-07 01:50 330 23.3
2019-Dec-07 01:46 328 1 gusting 2 23.3
2019-Dec-07 01:40 023 23.3
2019-Dec-07 01:35 313 0 gusting 1 23.3
2019-Dec-07 01:32 316 22.8
2019-Dec-07 01:25 019 0 gusting 3 22.8
2019-Dec-07 01:21 005 22.8
2019-Dec-07 01:17 030 0 gusting 1 22.8
2019-Dec-07 01:10 338 22.8
2019-Dec-07 01:05 313 0 gusting 1 22.8
2019-Dec-07 01:02 319 0 gusting 1 22.8
2019-Dec-07 00:56 313 23.3
2019-Dec-07 00:50 302 23.3
2019-Dec-07 00:46 324 0 gusting 2 23.9
2019-Dec-07 00:40 213 24.4
2019-Dec-07 00:36 214 24.4
2019-Dec-07 00:31 210 24.4
2019-Dec-07 00:25 205 24.4
2019-Dec-07 00:20 200 0 gusting 1 24.4
2019-Dec-07 00:16 202 0 gusting 1 24.4
2019-Dec-07 00:11 191 0 gusting 1 24.4
2019-Dec-07 00:06 161 24.4
2019-Dec-07 00:01 200 24.4
2019-Dec-06 23:55 198 0 gusting 1 24.4
2019-Dec-06 23:50 179 0 gusting 1 25.0
2019-Dec-06 23:46 197 0 gusting 1 25.0
2019-Dec-06 23:40 194 25.0
2019-Dec-06 23:35 214 0 gusting 1 25.0
2019-Dec-06 23:31 165 0 gusting 1 25.0
2019-Dec-06 23:26 203 25.0
2019-Dec-06 23:20 213 25.0
2019-Dec-06 23:15 191 25.0
2019-Dec-06 23:11 225 25.0
2019-Dec-06 23:06 176 0 gusting 1 25.0
2019-Dec-06 23:02 190 25.6
2019-Dec-06 22:55 206 0 gusting 2 25.6
2019-Dec-06 22:50 211 25.6
2019-Dec-06 22:46 225 0 gusting 1 25.6
2019-Dec-06 22:41 207 25.6
2019-Dec-06 22:35 131 25.6
2019-Dec-06 22:33 134 26.1
2019-Dec-06 22:25 194 26.1
2019-Dec-06 22:20 200 26.1
2019-Dec-06 22:16 157 26.1
2019-Dec-06 22:10 157 26.1
2019-Dec-06 22:05 179 26.1
2019-Dec-06 22:01 198 26.1
2019-Dec-06 21:55 116 26.7
2019-Dec-06 21:50 137 26.7
2019-Dec-06 21:47 147 0 gusting 2 26.7
2019-Dec-06 21:41 139 1 gusting 2 26.7
2019-Dec-06 21:35 149 0 gusting 4 27.2
2019-Dec-06 21:31 144 1 gusting 4 27.2
2019-Dec-06 21:25 129 1 gusting 5 27.2
2019-Dec-06 21:20 161 1 gusting 5 27.8
2019-Dec-06 21:16 121 1 gusting 6 27.8
2019-Dec-06 21:10 146 1 gusting 6 27.8
2019-Dec-06 21:05 146 2 gusting 6 27.8
2019-Dec-06 21:01 127 1 gusting 6 28.3
2019-Dec-06 20:55 160 2 gusting 6 28.3
2019-Dec-06 20:50 127 2 gusting 6 28.3
2019-Dec-06 20:45 120 2 gusting 6 28.3
2019-Dec-06 20:40 109 2 gusting 6 28.3
2019-Dec-06 20:35 141 3 gusting 7 28.3
2019-Dec-06 20:25 167 3 gusting 8 28.3
2019-Dec-06 20:20 120 3 gusting 7 28.9
2019-Dec-06 20:16 125 3 gusting 7 28.9
2019-Dec-06 20:10 157 3 gusting 6 28.9
2019-Dec-06 20:05 155 2 gusting 7 28.9
2019-Dec-06 20:01 144 3 gusting 7 28.9
2019-Dec-06 19:55 158 3 gusting 6 28.9
2019-Dec-06 19:50 181 1 gusting 7 28.9
2019-Dec-06 19:46 157 3 gusting 8 29.4
2019-Dec-06 19:40 166 3 gusting 8 29.4
2019-Dec-06 19:35 136 3 gusting 6 29.4
2019-Dec-06 19:31 152 2 gusting 8 28.9
2019-Dec-06 19:25 113 3 gusting 8 29.4
2019-Dec-06 19:20 161 1 gusting 9 28.9
2019-Dec-06 19:16 136 3 gusting 9 28.9
2019-Dec-06 19:10 122 3 gusting 7 28.9
2019-Dec-06 19:05 120 4 gusting 7 29.4
2019-Dec-06 19:01 108 4 gusting 6 29.4
2019-Dec-06 18:55 181 3 gusting 6 30.0
2019-Dec-06 18:50 126 2 gusting 6 29.4
2019-Dec-06 18:46 113 2 gusting 8 29.4
2019-Dec-06 18:40 177 4 gusting 8 29.4
2019-Dec-06 18:35 182 4 gusting 8 30.0
2019-Dec-06 18:31 156 4 gusting 8 29.4
2019-Dec-06 18:25 127 4 gusting 10 29.4
2019-Dec-06 18:20 174 3 gusting 10 29.4
2019-Dec-06 18:15 131 4 gusting 8 30.0
2019-Dec-06 18:10 136 3 gusting 8 29.4
2019-Dec-06 18:05 129 5 gusting 8 30.0
2019-Dec-06 18:01 110 3 gusting 9 29.4
2019-Dec-06 17:55 151 4 gusting 10 30.0
2019-Dec-06 17:50 143 4 gusting 8 30.0
2019-Dec-06 17:45 124 2 gusting 6 29.4
2019-Dec-06 17:40 098 3 gusting 6 29.4
2019-Dec-06 17:35 163 2 gusting 8 29.4
2019-Dec-06 17:30 086 2 gusting 10 28.9
2019-Dec-06 17:25 090 5 gusting 10 29.4
2019-Dec-06 17:20 135 2 gusting 6 30.0
2019-Dec-06 17:10 118 4 gusting 9 29.4
2019-Dec-06 17:05 109 4 gusting 9 28.9
2019-Dec-06 17:00 075 5 gusting 8 28.9
2019-Dec-06 16:55 110 3 gusting 7 28.9
2019-Dec-06 16:45 177 4 gusting 8 28.3
2019-Dec-06 16:35 138 2 gusting 7 28.3
2019-Dec-06 16:30 195 3 gusting 7 28.3
2019-Dec-06 16:25 105 3 gusting 6 28.9
2019-Dec-06 16:20 146 3 gusting 6 28.9
2019-Dec-06 16:15 146 2 gusting 7 28.3
2019-Dec-06 16:10 131 3 gusting 7 28.3
2019-Dec-06 16:05 114 3 gusting 7 28.9
2019-Dec-06 15:55 204 3 gusting 7 28.9
2019-Dec-06 15:50 202 3 gusting 7 28.9
2019-Dec-06 15:40 138 2 gusting 9 28.9
2019-Dec-06 15:35 096 3 gusting 10 29.4
2019-Dec-06 15:25 173 3 gusting 11 29.4
2019-Dec-06 15:20 130 4 gusting 8 28.9
2019-Dec-06 15:10 143 4 gusting 10 28.9
2019-Dec-06 15:05 130 3 gusting 7 28.9
2019-Dec-06 15:00 162 4 gusting 7 28.9
2019-Dec-06 14:55 143 3 gusting 7 28.3
2019-Dec-06 14:50 155 5 gusting 8 28.3
2019-Dec-06 14:45 134 3 gusting 9 27.8
2019-Dec-06 14:40 115 4 gusting 9 27.8
2019-Dec-06 14:35 147 3 gusting 8 27.8
2019-Dec-06 14:30 179 2 gusting 6 27.8
2019-Dec-06 14:21 150 2 gusting 6 27.8
2019-Dec-06 14:17 117 3 gusting 7 27.8
2019-Dec-06 14:11 138 3 gusting 7 28.3
2019-Dec-06 14:02 141 4 gusting 7 28.3
2019-Dec-06 13:55 122 2 gusting 6 27.8
2019-Dec-06 13:50 140 3 gusting 8 27.8
2019-Dec-06 13:46 091 3 gusting 6 27.8
2019-Dec-06 13:40 126 2 gusting 5 27.8
2019-Dec-06 13:35 103 2 gusting 5 27.2
2019-Dec-06 13:31 139 1 gusting 4 27.2
2019-Dec-06 13:25 122 2 gusting 4 26.7
2019-Dec-06 13:20 098 1 gusting 6 26.7
2019-Dec-06 13:16 133 2 gusting 6 26.7
2019-Dec-06 13:10 117 1 gusting 6 26.7
2019-Dec-06 13:05 183 3 gusting 6 26.7
2019-Dec-06 13:01 127 2 gusting 5 26.7
2019-Dec-06 12:55 135 1 gusting 4 27.2
2019-Dec-06 12:50 212 1 gusting 4 27.2
2019-Dec-06 12:46 122 2 gusting 4 27.2
2019-Dec-06 12:40 184 0 gusting 4 26.7
2019-Dec-06 12:35 154 2 gusting 4 26.7
2019-Dec-06 12:31 210 0 gusting 3 26.1
2019-Dec-06 12:25 153 0 gusting 3 26.1
2019-Dec-06 12:20 167 0 gusting 5 25.6
2019-Dec-06 12:15 135 0 gusting 5 25.6
2019-Dec-06 12:10 155 0 gusting 4 25.6
2019-Dec-06 12:05 130 2 gusting 4 25.0
2019-Dec-06 12:00 165 0 gusting 3 25.0
2019-Dec-06 11:55 149 24.4
2019-Dec-06 11:50 143 24.4
2019-Dec-06 11:46 105 0 gusting 1 24.4
2019-Dec-06 11:40 124 24.4
2019-Dec-06 11:30 158 0 gusting 2 23.9
2019-Dec-06 11:25 164 23.9
2019-Dec-06 11:20 141 0 gusting 1 23.3
2019-Dec-06 11:15 181 23.3
2019-Dec-06 11:10 151 23.3
2019-Dec-06 11:05 154 23.3
2019-Dec-06 10:55 202 22.8
2019-Dec-06 10:50 304 22.8
2019-Dec-06 10:45 304 22.8
2019-Dec-06 10:40 304 22.2
2019-Dec-06 10:35 304 22.2
2019-Dec-06 10:30 304 22.2
2019-Dec-06 10:25 304 22.2
2019-Dec-06 10:20 304 22.2
2019-Dec-06 10:15 283 0 gusting 1 22.8
2019-Dec-06 10:10 311 22.8
2019-Dec-06 10:05 335 22.8
2019-Dec-06 09:56 324 22.8
2019-Dec-06 09:50 025 22.8
2019-Dec-06 09:47 026 22.8
2019-Dec-06 09:40 026 22.8
2019-Dec-06 09:36 026 22.8
2019-Dec-06 09:31 325 22.8
2019-Dec-06 09:26 311 0 gusting 1 22.8
2019-Dec-06 09:20 285 23.3
2019-Dec-06 09:17 063 23.3
2019-Dec-06 09:10 063 23.3
2019-Dec-06 09:06 062 0 gusting 1 23.3
2019-Dec-06 09:01 293 23.3
2019-Dec-06 08:56 293 23.3
2019-Dec-06 08:51 293 23.3
2019-Dec-06 08:46 026 23.3
2019-Dec-06 08:35 358 1 gusting 2 23.3
2019-Dec-06 08:31 335 23.3
2019-Dec-06 08:25 307 1 gusting 2 23.3
2019-Dec-06 08:20 314 0 gusting 2 23.3
2019-Dec-06 08:16 331 0 gusting 2 23.3
2019-Dec-06 08:10 345 0 gusting 2 23.3
2019-Dec-06 08:05 004 0 gusting 2 23.3
2019-Dec-06 08:00 338 1 gusting 2 23.3
2019-Dec-06 07:55 061 0 gusting 2 23.3
2019-Dec-06 07:50 008 0 gusting 2 23.3
2019-Dec-06 07:46 325 0 gusting 3 23.3
2019-Dec-06 07:40 326 0 gusting 3 23.3
2019-Dec-06 07:35 025 0 gusting 1 23.3
2019-Dec-06 07:31 342 0 gusting 1 23.3
2019-Dec-06 07:25 030 23.3
2019-Dec-06 07:20 353 23.9
2019-Dec-06 07:16 349 0 gusting 4 23.9
2019-Dec-06 07:10 330 2 gusting 4 23.3
2019-Dec-06 07:05 326 2 gusting 4 23.3
2019-Dec-06 07:01 326 2 gusting 4 23.3
2019-Dec-06 06:55 013 2 gusting 4 23.3
2019-Dec-06 06:50 330 1 gusting 3 23.9
2019-Dec-06 06:45 321 23.9
2019-Dec-06 06:40 281 23.9
2019-Dec-06 06:35 252 24.4
2019-Dec-06 06:30 162 24.4
2019-Dec-06 06:25 162 24.4
2019-Dec-06 06:20 160 24.4
2019-Dec-06 06:10 144 24.4
2019-Dec-06 06:05 130 24.4
2019-Dec-06 06:00 210 0 gusting 1 24.4
2019-Dec-06 05:50 181 24.4
2019-Dec-06 05:46 181 24.4
2019-Dec-06 05:40 181 24.4
2019-Dec-06 05:35 160 24.4
2019-Dec-06 05:25 160 24.4
2019-Dec-06 05:15 155 24.4
2019-Dec-06 05:10 168 24.4
2019-Dec-06 05:05 162 24.4
2019-Dec-06 05:00 150 24.4
2019-Dec-06 04:55 146 0 gusting 1 24.4
2019-Dec-06 04:50 190 24.4
2019-Dec-06 04:40 158 24.4
2019-Dec-06 04:35 157 24.4
2019-Dec-06 04:25 205 24.4
2019-Dec-06 04:20 186 24.4
2019-Dec-06 04:15 180 24.4
2019-Dec-06 04:10 203 24.4
2019-Dec-06 04:05 210 24.4
2019-Dec-06 04:00 156 24.4
2019-Dec-06 03:55 159 25.0
2019-Dec-06 03:50 143 25.0
2019-Dec-06 03:40 154 25.0
2019-Dec-06 03:35 156 25.0
2019-Dec-06 03:30 158 25.0
2019-Dec-06 03:25 162 0 gusting 1 25.0
2019-Dec-06 03:15 160 25.0
2019-Dec-06 03:10 157 25.0
2019-Dec-06 03:05 165 25.0
2019-Dec-06 03:00 194 25.0
2019-Dec-06 02:55 156 25.0
2019-Dec-06 02:50 154 25.0
2019-Dec-06 02:45 146 25.0
2019-Dec-06 02:40 145 25.0
2019-Dec-06 02:35 152 25.0
2019-Dec-06 02:30 188 25.0
2019-Dec-06 02:21 129 25.0
2019-Dec-06 02:17 148 25.0
2019-Dec-06 02:10 155 25.0
2019-Dec-06 02:05 158 0 gusting 2 25.0
2019-Dec-06 02:01 197 25.0
2019-Dec-06 01:55 169 25.0
2019-Dec-06 01:50 157 25.6
2019-Dec-06 01:47 160 25.6
2019-Dec-06 01:41 167 25.6
2019-Dec-06 01:35 137 25.6
2019-Dec-06 01:31 161 25.6
2019-Dec-06 01:25 203 25.6
2019-Dec-06 01:21 214 25.6
2019-Dec-06 01:17 179 25.6
2019-Dec-06 01:10 164 25.6
2019-Dec-06 01:06 125 25.6
2019-Dec-06 01:01 134 25.6
2019-Dec-06 00:56 128 0 gusting 2 25.6
2019-Dec-06 00:51 120 25.6
2019-Dec-06 00:46 132 0 gusting 2 25.6
2019-Dec-06 00:41 156 25.6
2019-Dec-06 00:35 141 25.6
2019-Dec-06 00:31 158 25.6
2019-Dec-06 00:26 200 25.6
2019-Dec-06 00:20 203 25.6
2019-Dec-06 00:17 182 25.6
2019-Dec-06 00:11 202 25.6
2019-Dec-06 00:05 151 25.6
2019-Dec-06 00:02 121 0 gusting 2 25.6
2019-Dec-05 23:56 140 25.6
2019-Dec-05 23:50 120 25.6
2019-Dec-05 23:46 132 25.6
2019-Dec-05 23:40 129 0 gusting 2 26.1
2019-Dec-05 23:35 155 26.1
2019-Dec-05 23:31 160 26.1
2019-Dec-05 23:25 147 26.1
2019-Dec-05 23:21 140 26.1
2019-Dec-05 23:17 205 0 gusting 1 26.1
2019-Dec-05 23:10 212 26.1
2019-Dec-05 23:06 188 26.1
2019-Dec-05 23:01 188 26.7
2019-Dec-05 22:55 155 26.7
2019-Dec-05 22:50 118 26.7
2019-Dec-05 22:46 119 26.7
2019-Dec-05 22:40 117 26.7
2019-Dec-05 22:35 128 26.1
2019-Dec-05 22:31 115 26.7
2019-Dec-05 22:26 122 26.7
2019-Dec-05 22:20 169 26.7
2019-Dec-05 22:16 120 0 gusting 2 26.7
2019-Dec-05 22:10 165 0 gusting 2 26.7
2019-Dec-05 22:05 130 0 gusting 2 26.7
2019-Dec-05 22:02 141 0 gusting 2 27.2
2019-Dec-05 21:55 128 0 gusting 3 27.2
2019-Dec-05 21:50 090 0 gusting 3 27.2
2019-Dec-05 21:46 118 0 gusting 4 27.2
2019-Dec-05 21:41 138 1 gusting 5 27.2
2019-Dec-05 21:35 117 2 gusting 5 27.2
2019-Dec-05 21:31 104 1 gusting 4 27.8
2019-Dec-05 21:25 099 2 gusting 4 27.8
2019-Dec-05 21:20 118 1 gusting 4 27.8
2019-Dec-05 21:16 137 0 gusting 5 28.3